Augusta, Maine, United States (04330)
Lat: 44.31N, Lon: 69.78W
Wx Zone: MEZ021
Local Info
Past Weather Observations for Sunday, September 25, 2016

NOTE: This archive is for the closest National Weather Service station to Augusta. Information may differ from the station used for current weather conditions.

Click here for Long-term Archive

Time Weather Temperature Dewpoint Humidity Pressure Winds Precip Visibility
23:53
Clear
46°F / 8°C 36°F / 2°C 66% 30.15 in
(1021 mb)
WNW 5.8 mph
(WNW 9 kph)
- 10SM
22:53
Clear
45°F / 7°C 36°F / 2°C 71% 30.15 in
(1021 mb)
WNW 6.9 mph
(WNW 11 kph)
- 10SM
21:53
Clear
46°F / 8°C 36°F / 2°C 66% 30.15 in
(1021 mb)
NW 8.1 mph
(NW 13 kph)
- 10SM
20:53
Clear
46°F / 8°C 36°F / 2°C 66% 30.15 in
(1021 mb)
NW 4.6 mph
(NW 7 kph)
- 10SM
19:53
Clear
48°F / 9°C 34°F / 1°C 58% 30.15 in
(1021 mb)
NNW 8.1 mph
(NNW 13 kph)
- 10SM
18:53
Clear
52°F / 11°C 34°F / 1°C 50% 30.12 in
(1020 mb)
NW 10.4 mph
(NW 17 kph)
- 10SM
17:53
Mostly Cloudy
54°F / 12°C 36°F / 2°C 51% 30.12 in
(1020 mb)
NW 8.1 mph
(NW 13 kph)
- 10SM
16:53
Overcast
55°F / 13°C 36°F / 2°C 47% 30.09 in
(1019 mb)
NNW 12.7 mph
(NNW 20 kph)
- 10SM
15:53
Overcast
55°F / 13°C 36°F / 2°C 47% 30.06 in
(1018 mb)
NW 11.5 mph
(NW 19 kph)
- 10SM
14:53
Overcast
57°F / 14°C 36°F / 2°C 44% 30.06 in
(1018 mb)
N 11.5 mph
(N 19 kph)
- 10SM
13:53
Mostly Cloudy
57°F / 14°C 36°F / 2°C 44% 30.04 in
(1017 mb)
NW 9.2 mph
(NW 15 kph)
- 10SM
12:53
Mostly Cloudy
55°F / 13°C 34°F / 1°C 44% 30.06 in
(1018 mb)
Variable 6.9 mph
(Variable 11 kph)
- 10SM
11:53
Overcast
55°F / 13°C 34°F / 1°C 44% 30.06 in
(1018 mb)
N 13.8 mph
(N 22 kph)
- 10SM
10:53
Partly Cloudy
57°F / 14°C 34°F / 1°C 41% 30.06 in
(1018 mb)
NNW 18.4 mph
(NNW 30 kph)
- 10SM
09:53
Partly Cloudy
57°F / 14°C 34°F / 1°C 41% 30.06 in
(1018 mb)
NW 17.3 mph
(NW 28 kph)
- 10SM
08:53
Clear
54°F / 12°C 36°F / 2°C 51% 30.06 in
(1018 mb)
NW 10.4 mph
(NW 17 kph)
- 10SM
07:53
Clear
48°F / 9°C 37°F / 3°C 66% 30.06 in
(1018 mb)
Variable 5.8 mph
(Variable 9 kph)
- 10SM
06:53
Clear
46°F / 8°C 36°F / 2°C 66% 30.06 in
(1018 mb)
W 10.4 mph
(W 17 kph)
- 10SM
05:53
Clear
45°F / 7°C 36°F / 2°C 71% 30.06 in
(1018 mb)
W 9.2 mph
(W 15 kph)
- 10SM
04:53
Clear
43°F / 6°C 36°F / 2°C 76% 30.06 in
(1018 mb)
W 6.9 mph
(W 11 kph)
- 10SM
03:53
Partly Cloudy
43°F / 6°C 34°F / 1°C 71% 30.06 in
(1018 mb)
W 6.9 mph
(W 11 kph)
- 10SM
02:53
Clear
45°F / 7°C 34°F / 1°C 66% 30.06 in
(1018 mb)
W 5.8 mph
(W 9 kph)
- 10SM
01:53
Clear
45°F / 7°C 34°F / 1°C 66% 30.06 in
(1018 mb)
WNW 5.8 mph
(WNW 9 kph)
- 10SM
00:53
Clear
45°F / 7°C 34°F / 1°C 66% 30.06 in
(1018 mb)
NW 6.9 mph
(NW 11 kph)
- 10SM
Time Weather Temperature Dewpoint Humidity Pressure Winds Precip Visibility


Weather for websites

WeatherForYou.com, LLC is not responsible for any damages or problems caused by this service. Current weather conditions are obtained from the closest station including government and personal stations which may have varying degrees of accuracy. Weather forecasts are derived from the NOAA NDFD. Like all things, this site belongs to Jesus Christ... He just trusts us to maintain it. If you have any questions or comments email webmaster@weatherforyou.com

Copyright © 2016, WeatherForYou.com LLC. All rights reserved.